When you browse on this site, cookies collect data to enhance your experience and personalize the content and advertising you see.
Visit our Privacy Policy to learn more. By continuing to use the site, you agree to this use of cookies and data.
  • In Hungary
  • List of Countries
  • For 7 days
  • Water Temperature
  • Satellite Maps
  • Weather Map
  • News
  • Weather Widgets
  • user-avatar
    Login

    Hourly Weather Uz

    Today, 14 December, Friday

    Time Temperature Precipitation Wind Pressure Humidity
    00:00 +8°C° 0 mm 4 mps 702 mmHg 30%
    01:00 +8°C° 0 mm 4 mps 702 mmHg 30%
    02:00 +8°C° 0 mm 4 mps 702 mmHg 30%
    03:00 +8°C° 0 mm 4 mps 702 mmHg 30%
    04:00 +8°C° 0 mm 4 mps 702 mmHg 28%
    05:00 +8°C° 0 mm 4 mps 702 mmHg 29%
    06:00 +8°C° 0 mm 4 mps 703 mmHg 29%
    07:00 +8°C° 0 mm 4 mps 703 mmHg 29%
    08:00 +11°C° 0 mm 4 mps 703 mmHg 29%
    09:00 +13°C° 0 mm 3 mps 704 mmHg 28%
    10:00 +16°C° 0 mm 3 mps 704 mmHg 28%
    11:00 +16°C° 0 mm 3 mps 704 mmHg 26%
    12:00 +17°C° 0 mm 3 mps 704 mmHg 25%
    13:00 +18°C° 0 mm 2 mps 704 mmHg 24%
    14:00 +16°C° 0 mm 2 mps 704 mmHg 27%
    15:00 +15°C° 0 mm 2 mps 704 mmHg 29%
    16:00 +13°C° 0 mm 2 mps 704 mmHg 32%
    17:00 +12°C° 0 mm 2 mps 704 mmHg 32%
    18:00 +12°C° 0 mm 2 mps 704 mmHg 31%
    19:00 +10°C° 0 mm 2 mps 704 mmHg 31%
    20:00 +10°C° 0 mm 2 mps 704 mmHg 30%
    21:00 +10°C° 0 mm 2 mps 705 mmHg 29%
    22:00 +9°C° 0 mm 2 mps 705 mmHg 29%
    23:00 +9°C° 0 mm 2 mps 705 mmHg 28%

    Tomorrow, 15 December, Saturday

    Time Temperature Precipitation Wind Pressure Humidity
    00:00 +9°C° 0 mm 2 mps 704 mmHg 28%
    01:00 +8°C° 0 mm 2 mps 704 mmHg 28%
    02:00 +8°C° 0 mm 2 mps 704 mmHg 28%
    03:00 +8°C° 0 mm 2 mps 704 mmHg 28%
    04:00 +8°C° 0 mm 2 mps 704 mmHg 28%
    05:00 +7°C° 0 mm 2 mps 705 mmHg 29%
    06:00 +7°C° 0 mm 2 mps 705 mmHg 29%
    07:00 +7°C° 0 mm 2 mps 705 mmHg 29%
    08:00 +9°C° 0 mm 2 mps 705 mmHg 28%
    09:00 +12°C° 0 mm 2 mps 705 mmHg 27%
    10:00 +14°C° 0 mm 1 mps 706 mmHg 26%
    11:00 +14°C° 0 mm 1 mps 705 mmHg 26%
    12:00 +15°C° 0 mm 2 mps 705 mmHg 26%
    13:00 +15°C° 0 mm 2 mps 704 mmHg 26%
    14:00 +14°C° 0 mm 2 mps 704 mmHg 29%
    15:00 +13°C° 0 mm 2 mps 704 mmHg 32%
    16:00 +11°C° 0 mm 1 mps 704 mmHg 35%
    17:00 +10°C° 0 mm 2 mps 704 mmHg 35%
    18:00 +9°C° 0 mm 2 mps 704 mmHg 35%
    19:00 +8°C° 0 mm 2 mps 705 mmHg 35%
    20:00 +8°C° 0 mm 2 mps 705 mmHg 36%
    21:00 +7°C° 0 mm 2 mps 705 mmHg 36%
    22:00 +7°C° 0 mm 2 mps 705 mmHg 36%
    23:00 +7°C° 0 mm 2 mps 706 mmHg 37%

    Day after tomorrow, 16 December, Sunday

    Time Temperature Precipitation Wind Pressure Humidity
    00:00 +7°C° 0 mm 2 mps 706 mmHg 38%
    01:00 +6°C° 0 mm 2 mps 706 mmHg 39%
    02:00 +6°C° 0 mm 2 mps 706 mmHg 40%
    03:00 +6°C° 0 mm 2 mps 707 mmHg 41%
    04:00 +6°C° 0 mm 2 mps 707 mmHg 43%
    05:00 +6°C° 0 mm 2 mps 707 mmHg 43%
    06:00 +5°C° 0 mm 2 mps 708 mmHg 43%
    07:00 +5°C° 0 mm 2 mps 708 mmHg 43%
    08:00 +8°C° 0 mm 1 mps 708 mmHg 41%
    09:00 +9°C° 0 mm 1 mps 709 mmHg 39%
    10:00 +11°C° 0 mm 1 mps 709 mmHg 37%
    11:00 +11°C° 0 mm 1 mps 709 mmHg 37%
    12:00 +12°C° 0 mm 1 mps 708 mmHg 36%
    13:00 +13°C° 0 mm 2 mps 708 mmHg 36%
    14:00 +12°C° 0 mm 2 mps 707 mmHg 39%
    15:00 +10°C° 0 mm 2 mps 707 mmHg 42%
    16:00 +9°C° 0 mm 2 mps 707 mmHg 46%
    17:00 +9°C° 0 mm 2 mps 706 mmHg 45%
    18:00 +8°C° 0 mm 2 mps 706 mmHg 44%
    19:00 +8°C° 0 mm 2 mps 706 mmHg 44%
    20:00 +8°C° 0 mm 2 mps 706 mmHg 42%
    21:00 +8°C° 0 mm 2 mps 705 mmHg 40%
    22:00 +8°C° 0 mm 2 mps 705 mmHg 39%
    23:00 +8°C° 0 mm 2 mps 705 mmHg 37%

    17 December, Monday

    Time Temperature Precipitation Wind Pressure Humidity
    00:00 +8°C° 0 mm 2 mps 705 mmHg 36%
    01:00 +8°C° 0 mm 2 mps 704 mmHg 35%
    02:00 +7°C° 0 mm 2 mps 704 mmHg 34%
    03:00 +7°C° 0 mm 2 mps 704 mmHg 33%
    04:00 +7°C° 0 mm 2 mps 704 mmHg 32%
    05:00 +7°C° 0 mm 2 mps 704 mmHg 31%
    06:00 +7°C° 0 mm 2 mps 704 mmHg 31%
    07:00 +7°C° 0 mm 2 mps 704 mmHg 30%
    08:00 +9°C° 0 mm 2 mps 705 mmHg 29%
    09:00 +10°C° 0 mm 2 mps 705 mmHg 28%
    10:00 +13°C° 0 mm 2 mps 705 mmHg 27%
    11:00 +12°C° 0 mm 3 mps 705 mmHg 27%
    12:00 +13°C° 0 mm 3 mps 705 mmHg 28%
    13:00 +13°C° 0 mm 3 mps 705 mmHg 28%
    14:00 +12°C° 0 mm 3 mps 705 mmHg 31%
    15:00 +12°C° 0 mm 2 mps 705 mmHg 34%
    16:00 +10°C° 0 mm 2 mps 705 mmHg 37%
    17:00 +9°C° 0 mm 2 mps 705 mmHg 38%
    18:00 +8°C° 0 mm 2 mps 705 mmHg 38%
    19:00 +8°C° 0 mm 2 mps 705 mmHg 38%
    20:00 +8°C° 0 mm 2 mps 705 mmHg 37%
    21:00 +8°C° 0 mm 2 mps 705 mmHg 37%
    22:00 +7°C° 0 mm 2 mps 705 mmHg 36%
    23:00 +7°C° 0 mm 2 mps 705 mmHg 36%

    18 December, Tuesday

    Time Temperature Precipitation Wind Pressure Humidity
    00:00 +7°C° 0 mm 2 mps 705 mmHg 36%
    01:00 +7°C° 0 mm 2 mps 705 mmHg 36%
    02:00 +7°C° 0 mm 2 mps 705 mmHg 35%
    03:00 +8°C° 0 mm 2 mps 705 mmHg 35%
    04:00 +8°C° 0 mm 2 mps 704 mmHg 34%
    05:00 +8°C° 0 mm 2 mps 704 mmHg 34%
    06:00 +8°C° 0 mm 2 mps 704 mmHg 33%
    07:00 +8°C° 0 mm 2 mps 704 mmHg 33%
    08:00 +10°C° 0 mm 2 mps 705 mmHg 32%
    09:00 +12°C° 0 mm 2 mps 705 mmHg 30%
    10:00 +14°C° 0 mm 1 mps 705 mmHg 29%
    11:00 +14°C° 0 mm 1 mps 704 mmHg 28%
    12:00 +15°C° 0 mm 1 mps 704 mmHg 27%
    13:00 +15°C° 0 mm 1 mps 703 mmHg 26%
    14:00 +15°C° 0 mm 2 mps 703 mmHg 29%
    15:00 +14°C° 0 mm 2 mps 702 mmHg 32%
    16:00 +13°C° 0 mm 2 mps 702 mmHg 35%
    17:00 +13°C° 0 mm 2 mps 702 mmHg 36%
    18:00 +13°C° 0 mm 2 mps 701 mmHg 37%
    19:00 +11°C° 0 mm 3 mps 701 mmHg 38%
    20:00 +11°C° 0 mm 3 mps 701 mmHg 38%
    21:00 +12°C° 0 mm 2 mps 701 mmHg 37%
    22:00 +12°C° 0 mm 2 mps 700 mmHg 37%
    23:00 +12°C° 0 mm 2 mps 700 mmHg 36%

    19 December, Wednesday

    Time Temperature Precipitation Wind Pressure Humidity
    00:00 +12°C° 0 mm 2 mps 699 mmHg 35%
    01:00 +12°C° 0 mm 2 mps 699 mmHg 34%
    02:00 +12°C° 0 mm 2 mps 699 mmHg 33%
    03:00 +12°C° 0 mm 2 mps 698 mmHg 31%
    04:00 +12°C° 0 mm 2 mps 698 mmHg 30%
    05:00 +12°C° 0 mm 2 mps 698 mmHg 29%
    06:00 +12°C° 0 mm 2 mps 698 mmHg 28%
    07:00 +12°C° 0 mm 2 mps 698 mmHg 27%
    08:00 +13°C° 0 mm 1 mps 699 mmHg 27%
    09:00 +14°C° 0 mm 1 mps 699 mmHg 27%
    10:00 +15°C° 0 mm 1 mps 700 mmHg 27%
    11:00 +15°C° 0 mm 2 mps 699 mmHg 27%
    12:00 +15°C° 0 mm 2 mps 699 mmHg 28%
    13:00 +13°C° 0 mm 3 mps 699 mmHg 29%
    14:00 +13°C° 0.1 mm 2 mps 700 mmHg 33%
    15:00 +12°C° 0.1 mm 2 mps 700 mmHg 37%
    16:00 +12°C° 0.1 mm 2 mps 700 mmHg 41%
    17:00 +10°C° 0.2 mm 2 mps 701 mmHg 46%
    18:00 +9°C° 0.2 mm 2 mps 702 mmHg 52%
    19:00 +9°C° 0.2 mm 2 mps 702 mmHg 57%
    20:00 +8°C° 0.2 mm 3 mps 703 mmHg 61%
    21:00 +8°C° 0.2 mm 3 mps 703 mmHg 65%
    22:00 +7°C° 0.2 mm 3 mps 704 mmHg 68%
    23:00 +7°C° 0.5 mm 3 mps 704 mmHg 72%
    Show more